Location: Cz?stochówka
(50.8142°N, 19.0915°E)
Time: 08:23:18
(UTC+00:00)

Cosmos 1484 Rocket - Pass Details

Date: 13 January 2026
Orbit: 439 x 466 km, 97.6° (Epoch: 17 February)

Event Time Altitude Azimuth Distance (km) Brightness Sun altitude
Rises 04:48:00 0° 13° (NNE) 2,450 6.1 -17.1°
Reaches altitude 10° 04:50:02 10° 14° (NNE) 1,577 5.2 -16.8°
Maximum altitude 04:53:24 90° 11° (N) 454 2.3 -16.3°
Drops below altitude 10° 04:56:47 10° 195° (SSW) 1,578 5.2 -15.8°
Sets 04:58:49 0° 195° (SSW) 2,450 6.1 -15.5°
